SKYSAT-C6

Last updated on Thu Jul 03 2025 00:02:30 GMT+0000 (Coordinated Universal Time)

1 42992U 17068F 25183.33333353 .00006303 00000+0 21971-3 0 9997 2 42992 97.4134 314.8004 0000138 323.2644 36.8587 15.29999228428762
UTC large
Height (km)
Speed (km/s)
/
Latitude / Longitude
Inclination (degrees)
Orbital Period (minutes)
Azimuth
Elevation
Range (km)
Doppler Factor

Next 0 passes for location: London (51.5072 / 0.1276)

Sorry there are no passes over London.